Location: Slidell
(30.2789°N, 89.7378°W)
Time: 21:44:54
(UTC-05:00)

Daily predictions for brighter satellites

Satellite Brightness Start Highest point End
(mag) Time Altitude Azimuth Time Altitude Azimuth Time Altitude Azimuth
Cosmos 2233 Rocket 4.5 20:07:45 10° N 20:13:35 40° E 20:19:20 10° SSE
FengYun 1-2 T 4.3 20:09:00 10° SSE 20:14:27 67° ENE 20:19:54 10° N
Meteor 1-12 Rocket 4.4 20:09:04 10° N 20:14:57 87° W 20:20:40 10° S
Delta 168 3.9 20:13:17 10° SW 20:16:01 23° SSE 20:19:21 10° ESE
CZ-3C R/B 3.8 19:54:15 10° WSW 20:17:14 31° S 20:22:02 10° SE
Cosmos 1242 Rocket 3.5 20:18:11 10° SSW 20:21:50 55° W 20:25:30 10° N
Cosmos 2098 Rocket 3.2 20:21:46 10° N 20:25:11 44° E 20:29:24 10° SSE
Cosmos 2333 Rocket 3.2 20:20:33 10° SW 20:26:03 53° WNW 20:31:34 10° N
Cosmos 2251 Rocket 3.5 20:22:02 10° S 20:27:16 66° ESE 20:32:33 10° NNE
Milstar 3 Cent rocket 2.8 20:25:05 10° W 20:34:30 70° SSW 20:39:27 11° ESE
deb Chang Zheng 4 4.2 20:31:28 10° NNE 20:35:31 36° E 20:39:32 10° SSE
CZ-2C R/B 2.3 20:36:24 14° ESE 20:37:20 17° ENE 20:38:59 10° NNE
H-2A R/B 3.0 20:34:18 10° SSE 20:38:08 54° ENE 20:42:00 10° N
Cosmos 1844 Rocket 3.3 20:33:26 10° NNW 20:38:58 57° WSW 20:44:28 10° S
Cosmos 1844 3.9 20:35:22 10° NNW 20:41:09 78° WSW 20:46:55 10° SSE
ERS-1 Rocket 3.7 20:36:55 11° SE 20:41:19 35° ENE 20:45:51 10° N
BREEZE-M DEB (TANK) 3.5 20:32:03 10° SW 20:42:12 87° SE 20:45:14 10° NE
FENGYUN 3A 3.7 20:38:14 10° SSE 20:43:33 69° ENE 20:48:54 10° N
Cosmos 1975 4.0 20:42:53 10° NNW 20:46:41 43° W 20:50:27 10° SSW
Cosmos 1606 Rocket 3.7 20:44:52 10° N 20:49:13 53° E 20:53:08 12° SSE
H-2A R/B 2.9 20:48:21 16° SE 20:51:06 33° ENE 20:54:57 10° N
Hubble Space Telescope 2.5 20:50:33 10° WSW 20:53:44 21° SSW 20:56:04 14° SSE
ATLAS CENTAUR R/B 4.2 20:55:23 10° WSW 20:59:31 27° NW 21:03:46 10° N
Cosmos 2237 Rocket 4.5 20:57:57 10° WSW 21:02:40 27° WNW 21:07:26 10° N
Resurs 01 Rocket 4.4 21:00:21 10° SW 21:02:40 14° W 21:05:00 10° WNW
ATLAS 3B CENTAUR R/B 4.1 21:01:45 10° SW 21:05:15 19° S 21:09:24 14° SSE
SJ-11-01 4.4 21:02:10 18° SSE 21:05:26 56° ENE 21:10:01 10° N
GEOS 3 Rocket 3.7 21:02:57 17° SSE 21:07:05 85° WSW 21:12:22 10° NNW
Atlas Centaur 2 3.0 21:02:00 10° WSW 21:09:18 61° SSE 21:17:40 10° E
Fermi 4.4 21:12:12 10° WSW 21:15:57 35° S 21:16:42 32° SSE
Cosmos 2278 Rocket 2.7 21:10:32 10° NNW 21:16:05 56° WSW 21:21:05 13° S
Cosmos 494 Rocket 4.4 21:11:34 10° SSW 21:16:37 62° WNW 21:21:40 10° N
PSLV R/B 4.3 21:14:48 10° WSW 21:18:13 49° NNW 21:21:42 10° NE
Aureole 2 Rocket 2.8 21:14:09 10° SSW 21:18:17 81° WNW 21:22:06 10° NNE
USA 186 3.7 21:15:47 10° SSW 21:18:18 24° W 21:20:44 10° NW
COSMOS 2455 3.2 21:13:41 10° S 21:19:13 41° ESE 21:24:48 10° NE
Meteor 1-15 Rocket 4.4 21:13:51 10° N 21:19:18 53° E 21:22:12 27° SE
Cosmos 2228 3.3 21:15:47 10° N 21:20:03 48° E 21:21:31 34° SE
Cosmos 1939 Rocket 3.1 21:18:34 32° SE 21:20:11 54° ENE 21:24:15 10° N
ISS -1.2 21:18:37 10° SSW 21:19:19 15° SSW 21:19:19 15° SSW
SPOT 5 3.1 21:26:56 35° ESE 21:28:04 43° ENE 21:32:12 10° N
SL-16 R/B 3.7 21:24:23 10° SW 21:29:36 38° WNW 21:34:51 10° N
Cosmos 1666 2.6 21:30:14 10° N 21:34:07 70° E 21:34:49 54° SE
CZ-4 SHROUD 3.6 21:34:31 49° NE 21:34:31 49° NE 21:37:17 10° N
Gbstr 26 Del rocket 4.5 21:28:50 10° NW 21:36:26 79° NE 21:40:41 32° SE
Tsikada Rocket 4.0 21:33:55 20° S 21:38:27 72° E 21:44:50 10° N
OTV 4 2.5 21:38:19 10° W 21:40:00 19° SW 21:40:00 19° SW
Geosat 4.5 21:37:44 10° NE 21:42:04 38° E 21:42:04 38° E
Cosmos 1331 Rocket 4.3 21:39:44 10° NNW 21:44:52 63° WSW 21:47:14 31° S
Cosmos 1513 Rocket 4.4 21:38:54 10° N 21:45:12 87° E 21:48:21 31° S
DEBRIS 4.1 21:42:22 10° NNW 21:45:16 21° NNE 21:45:19 21° NNE
MetOp-B 4.2 21:49:01 47° SE 21:50:16 59° ENE 21:55:31 10° N
SeaSat 1 2.4 21:50:09 52° SE 21:51:14 70° ENE 21:56:09 10° NNW
Cosmos 1302 Rocket 3.9 21:48:58 10° NNW 21:54:14 87° ENE 21:55:30 53° SSE
Cosmos 2285 Rocket 4.2 21:48:48 10° NNW 21:55:04 68° WSW 21:58:06 32° S
Terra 4.0 21:56:20 13° ENE 21:56:20 13° ENE 21:57:51 10° NE
Cosmos 1603 4.1 21:52:47 10° SSW 21:58:19 61° WNW 22:03:52 10° NNE
CZ-4B R/B 3.5 21:56:26 10° N 22:01:32 83° WNW 22:03:35 38° SSW
APEX 3.9 22:02:25 10° NNW 22:06:52 78° WSW 22:07:38 63° S
Timation 1 Rocket 4.2 22:02:07 10° NNW 22:08:09 81° ENE 22:09:16 60° SE
Cosmos 1825 Rocket 4.3 22:10:25 42° NE 22:10:25 42° NE 22:13:37 10° NNE
Cosmos 1461 3.5 22:07:45 10° NNW 22:11:08 49° NNE 22:11:08 49° NNE
Delta 168 4.4 22:08:25 10° WSW 22:10:31 29° SW 22:10:31 29° SW
ATLAS 3B R/B 2.8 22:16:52 37° S 22:20:12 70° ESE 22:27:46 10° NE
Cosmos 1812 Rocket 3.8 22:15:55 10° N 22:19:55 66° NW 22:19:55 66° NW
Envisat 4.0 22:19:51 32° SW 22:21:16 39° W 22:26:01 10° NNW
USA 245 4.3 22:20:33 66° SSE 22:21:32 88° ENE 22:27:14 10° NNW
YAOGAN 6 4.0 22:24:55 38° NNW 22:24:55 38° NNW 22:27:21 10° NNW
Cosmos 1943 3.0 22:23:34 80° SSE 22:23:51 85° ESE 22:29:33 10° NNE
Cosmos 407 Rocket 4.4 22:27:24 38° NE 22:27:24 38° NE 22:30:50 10° NNE
Cosmos 1634 Rocket 3.9 22:21:44 10° N 22:27:50 64° E 22:27:54 64° E
OAO 3 Copernicus 4.5 22:25:03 10° WNW 22:29:35 68° NW 22:29:35 68° NW
USA 234 3.3 22:30:35 59° E 22:31:43 70° NE 22:38:15 10° NW
USA 81 4.1 22:33:38 10° N 22:38:24 73° NNW 22:38:24 73° NNW
Cosmos 489 Rocket 4.4 22:42:47 81° ENE 22:42:47 81° ENE 22:48:58 10° NNE
Cosmos 1943 Rocket 4.2 22:39:37 10° NNE 22:42:15 15° NE 22:42:15 15° NE
Cosmos 2279 Rocket 4.4 22:47:27 10° N 22:52:42 53° NE 22:52:42 53° NE
H-2A R/B 2.9 22:59:58 42° N 22:59:58 42° N 23:03:17 10° N
Atlas Centaur 2 2.9 22:51:05 10° W 22:59:15 89° S 23:00:56 63° E
ARGOS 4.2 23:10:54 38° W 23:10:54 38° W 23:15:19 10° NNW
Cosmos 2369 Rocket 2.9 23:08:58 10° NNW 23:13:08 51° NNW 23:13:08 51° NNW
Lacrosse 4 Rocket 4.2 23:31:20 15° NNW 23:31:20 15° NNW 23:32:25 10° N
Terra 3.7 23:35:13 27° NW 23:35:13 27° NW 23:37:31 10° NNW
